Other Public Products
Issued by NWS Grand Forks, ND

Home | Current Version | Previous Version | Graphics & Text | Print | Product List | Glossary On
Versions: 1 2 3 4 5 6 7 8 9 10 11 12 13 14 15 16 17 18 19 20 21 22 23 24 25 26 27 28 29 30 31 32 33 34 35 36 37 38 39 40 41 42 43 44 45 46 47 48 49 50
413
FPUS83 KFGF 101531
OPUFGF
PRAIRIE TO PINES WEATHER ROUNDUP
NATIONAL WEATHER SERVICE EASTERN NORTH DAKOTA/GRAND FORKS ND
900 AM CST WED FEB 10 2016

 **SATELLITE DATA USED TO AUGMENT SKY COVER AT AUTOMATED STATIONS**
 *****  WEATHER ACROSS EASTERN NORTH DAKOTA  *****

CITY           SKY/WX    TMP DP  RH WIND       PRES   REMARKS
GRAND FORKS    FLURRIES   6  -1  73 E9        30.12R WCI  -8
GRAND FORKS AF CLOUDY     5  -1  76 E8        30.11R WCI  -9
GRAND CITY NWS NOT AVBL
BUXTON           N/A    N/A N/A N/A CALM        N/A
DEVILS LAKE    NOT AVBL
FARGO          LGT SNOW   8   2  76 E8        30.09F WCI  -4
WAHPETON ARPT  CLOUDY     9   3  78 SE8       30.09R WCI  -4
$$

 *****  WEATHER ACROSS CENTRAL AND WESTERN NORTH DAKOTA  *****

CITY           SKY/WX    TMP DP  RH WIND       PRES   REMARKS
JAMESTOWN      CLOUDY     7   2  80 SE13      29.98S HAZE    WCI  -9
BISMARCK       CLEAR     22  17  81 E7        29.89R WCI  13
MINOT          CLOUDY    17   9  70 E12       29.92R WCI   4
MINOT AFB      CLOUDY    14  10  85 SE9       29.94R WCI   2
GARRISON         N/A     19  15  84 E14       29.88R WCI   6
WILLISTON      MOCLDY    31  26  82 N14       29.91R WCI  21
DICKINSON      CLEAR     33  26  75 NW13      29.83R WCI  24
HETTINGER      CLEAR     32  26  78 W8        29.86R WCI  25
$$

 *****  OTHER OBSERVATIONS NORTHEAST NORTH DAKOTA  *****

CITY           SKY/WX    TMP DP  RH WIND       PRES   REMARKS
WALHALLA       FAIR       1   0  92 E8        30.13R WCI -12
LANGDON        CLOUDY     3  -2  78 E15       30.02F WCI -15
CAVALIER       FAIR       3   0  85 SE9       30.14S WCI -11
GRAFTON        CLOUDY     3  -2  78 SE10      30.15F WCI -12
CANDO          CLOUDY     5   1  85 E15       30.04R WCI -13
FORT TOTTEN      N/A      4   0  83 SE7       29.95S WCI  -8
ROLLA          CLOUDY     3   0  85 SE13      30.00R WCI -14
RUGBY          CLOUDY     7   5  92 E15       29.98R WCI -11
 ***** THE ABOVE OBSERVATIONS ARE NON NWS ARE NOT QUALITY
        CONTROLLED AND MAY MIS-REPORT RAIN FOR SNOW...
$$

 *****  OTHER OBSERVATIONS SOUTHEAST NORTH DAKOTA *****

CITY           SKY/WX    TMP DP  RH WIND       PRES   REMARKS
COOPERSTOWN    NOT AVBL
VALLEY CITY    CLOUDY     5   1  85 E13       30.04R WCI -12
OAKES          LGT SNOW   9   5  85 E16       29.99F WCI  -9
GWINNER        CLOUDY    10   9  92 E12       30.02S VSB 1   WCI  -4
SHEYENNE NWR     N/A      7   2  82 SE9       29.95  WCI  -7
BUFFALO          N/A      5   0  80 E13         N/A  WCI -11
WYNDMERE         N/A      9   3  78 SE12        N/A  WCI  -6
 ***** THE ABOVE OBSERVATIONS ARE NON NWS ARE NOT QUALITY
       CONTROLLED AND MAY MIS-REPORT RAIN FOR SNOW...
$$

  *****  WEATHER ACROSS NORTHERN MINNESOTA  *****

CITY           SKY/WX    TMP DP  RH WIND       PRES   REMARKS
FLAG ISLAND    CLOUDY   -15 -18  84 CALM      30.16S
WARROAD        CLOUDY   -11 -17  77 NE3       30.15S
ROSEAU         CLOUDY    -9 -15  77 E6        30.15F WCI -23
HALLOCK        CLOUDY     1  -6  71 E9        30.14F WCI -14
THF RVR FALLS  CLOUDY     0  -8  71 E9        30.12S WCI -16
HALSTAD          N/A      6   3  89 E10         N/A  WCI  -9
FOSSTON          N/A      0  -4  85 E5        30.10S WCI -10
BAUDETTE       CLOUDY   -21 -23  90 CALM      30.14R
WASKISH        CLOUDY    -8 -13  77 E5        30.13S WCI -19
CROOKSTON      CLOUDY     3  -2  78 E9        30.14S WCI -11
$$
  *****  WEATHER ACROSS CENTRAL AND WEST MINNESOTA  *****

CITY           SKY/WX    TMP DP  RH WIND       PRES   REMARKS
BEMIDJI        CLOUDY    -5 -10  80 E3        30.10R
PARK RAPIDS    CLOUDY    -1  -8  72 E3        30.07S
WADENA         CLOUDY     0  -6  78 E6        30.08S WCI -12
DETROIT LAKES  CLOUDY     5   0  78 SE7       30.07F WCI  -7
MOORHEAD       MIX PCPN   7   1  78 E8        30.10S WCI  -6
FERGUS FALLS   CLOUDY     5   0  78 E7        30.11S WCI  -7
ELBOW LAKE     NOT AVBL
MORRIS MN      FLURRIES   7   1  78 E10       30.06F WCI  -8
STAPLES        CLOUDY     0  -8  71 E3        30.09F
WHEATON        LGT SNOW   9   5  85 SE13      30.10R WCI  -7
$$
  *****  WEATHER ELSEWHERE ACROSS MINNESOTA  *****

CITY           SKY/WX    TMP DP  RH WIND       PRES   REMARKS
DULUTH         MOSUNNY   -7 -13  75 N7        30.05R WCI -21
INTRNTL FALLS  CLOUDY   -13 -18  78 NE3       30.14R
ELY            SUNNY    -11 -17  77 NE6       30.08S WCI -25
CLOQUET        CLOUDY    -8 -15  71 N3        30.08R
BRAINERD       PTSUNNY   -3  -9  75 NE7       30.11R WCI -16
HIBBING        CLOUDY   -15 -18  86 NW5       30.08R WCI -27
ALEXANDRIA     CLOUDY     3  -5  69 E9        30.06F WCI -12
SAINT CLOUD    CLOUDY     2  -5  72 CALM      30.11F
MINNEAPOLIS    CLOUDY     4  -5  66 CALM      30.14R
$$

  *****  WEATHER ACROSS SOUTH DAKOTA  *****

CITY           SKY/WX    TMP DP  RH WIND       PRES   REMARKS
SIOUX FALLS    FLURRIES  17  14  88 E10       29.97S WCI   5
BROOKINGS      LGT SNOW  12   9  87 E12       29.96F FOG     WCI  -2
WATERTOWN      LGT SNOW  10   5  80 E10       29.96R WCI  -4
HURON          MOSUNNY   22  17  81 SE10      29.92F WCI  11
SISSETON         N/A      8   4  83 SE13      30.04S WCI  -8
ABERDEEN       CLOUDY    17  12  80 E10       29.95F WCI   5
MITCHELL       MOSUNNY   23  19  85 SE12      29.94S WCI  12
PIERRE         SUNNY     26  24  92 S5        29.85S WCI  20
MOBRIDGE       CLEAR     23  19  85 SE10      29.83F WCI  12
RAPID CITY     CLEAR     44  26  49 NW9       29.89S
$$

  *****  SOME WEATHER IN NEARBY STATES *****

CITY           SKY/WX    TMP DP  RH WIND       PRES   REMARKS
GLASGOW MT     CLEAR     32  26  78 NW10      29.98R WCI  24
GREAT FALLS MT MOCLDY    42  25  50 SW12      30.05S
CHEYENNE WY    CLEAR     43  14  31 NW14G23   30.17R
SCOTTSBLUFF NE CLEAR     39  25  57 NW15      30.04S
OMAHA NE       CLOUDY    28  19  69 S14       30.00S WCI  17
DES MOINES IA  SNOW      17  11  77 E7        30.10S VSB 1/2 WCI   8
DAVENPORT IA   MOSUNNY   10  -1  61 NW9       30.11S WCI  -3
CHICAGO IL     MOSUNNY   12   2  64 NW15      30.03R WCI  -4
EAU CLAIRE WI  CLOUDY     0  -7  72 NW6       30.09R WCI -12
LA CROSSE WI   CLOUDY     3  -6  66 NW6       30.12R WCI  -8
$$

  *****  SOME NATIONAL WEATHER *****

CITY           SKY/WX    TMP DP  RH WIND       PRES   REMARKS
LA GUARDIA NY  CLOUDY    36  28  73 W13G22    29.63R
RALEIGH NC     SUNNY     32  14  47 NW9       29.93S WCI  24
ATLANTA GA     MOSUNNY   27  11  51 NW16G29   30.13S WCI  15
NEW ORLEANS LA SUNNY     48  24  39 NE7       30.37R
OKLAHOMA CITY  SUNNY     40  25  55 SW16      30.22S
ALBUQUERQUE NM SUNNY     34  19  54 NW8       30.44R
SALT LAKE CITY SNOW      28  27  96 SE6       30.46F VSB 1/4 WCI  22
LOS ANGELES CA PTCLDY    62  30  29 E5        30.12S
BOISE ID       FOG       27  27 100 NW5       30.44R VSB 1/4 WCI  22
SEATTLE WA     MOCLDY    50  38  63 SE3       30.09R
$$

*** WEATHER ACROSS MANITOBA...SASKATCHEWAN AND ONTARIO ***
                ***ONTARIO***

CITY           SKY/WX    TMP DP  RH WIND       PRES   REMARKS
GERALDTON      MOSUNNY  -17 -22  76 NW9       30.02R WCI -36
THUNDER BAY    MOSUNNY  -13 -20  70 W9        30.16S WCI -31
SIOUX LOOKOUT  MOSUNNY  -22 -27  76 VRB2      30.14R
TORONTO        FLURRIES  25  18  74 NW17      29.62R WCI  11
BIG TROUT LK   PTSUNNY  -24 -29  76 NW7       30.15S WCI -42
PICKLE LAKE    FLURRIES -24 -31  69 W5        30.10R WCI -38
DRYDEN         SUNNY    -20 -24  83 NE5       30.12S WCI -33
KENORA         PTSUNNY  -15 -20  76 E5        30.14R WCI -27
$$
                *** MANITOBA***

CITY           SKY/WX    TMP DP  RH WIND       PRES   REMARKS
BRANDON        FLURRIES   3  -2  78 E17       30.07  WCI -17
DAUPHIN        FLURRIES   3   0  85 E12       30.13R WCI -13
ISLAND LAKE    CLEAR    -31 -36  75 CALM      30.23S
PILOT MOUND      N/A      1  -2  85 E12         N/A  WCI -15
THE PAS        FLURRIES  -4 -11  71 SE3       30.19R
THOMPSON       LGT SNOW -11 -17  77 NE2       30.25R
WINNIPEG       CLOUDY    -2  -9  71 E6        30.19S WCI -14
LYNN LAKE      FLURRIES  -6 -11  77 N5        30.21R WCI -17
CHURCHILL      CRYSTALS -22 -27  76 NW9       30.25F WCI -42
GILLAM         PTCLDY   -29 -36  68 W9        30.26R WCI -51
$$
                ***SASKATCHEWAN***

CITY           SKY/WX    TMP DP  RH WIND       PRES   REMARKS
ESTEVAN        CLOUDY    14  10  85 E9        29.95R WCI   2
KINDERSLEY     CLOUDY    30  30 100 NW6       30.06R WCI  24
LLOYDMINSTER   CLOUDY    28  25  86 NE13      30.11R WCI  18
PRINCE ALBERT  CLOUDY    12   9  85 N3        30.11R
REGINA         CLOUDY    25  23  93 NW10      29.97R WCI  15
YORKTON        FLURRIES   9   5  85 E7        30.04R WCC1F1C2F2C3F3C4F4C5F5C6F6C7F7C8F8C9F9CaFaCbFbCcFcCdFdCe!



USA.gov is the U.S. government's official web portal to all federal, state and local government web resources and services.